ITY331 LIRN-LIPX

Flight info

Callsign ITY331
Flight time 0h 59m
Altitude 34000
Route ALAXI DCT INSOX DCT RITEB DCT AMTEL DCT LUTOR DCT BOA Y72 XUBKA
Aircraft A320/M-SDE3FGHIRWY/LB1

Departure

Time 2026-04-23 16:44
Airport Naples International Airport (LIRN)

Arrival

Time 2026-04-23 17:43
Airport Verona Villafranca Valerio Catullo Airport (LIPX)
Time Latitude Longitude Altitude Speed Heading
2026-04-23 16:18 40.87867 14.28133 294 ft 0 kts 141°
2026-04-23 16:36 40.87873 14.28126 297 ft 2 kts 140°
2026-04-23 16:36 40.87886 14.28112 297 ft 2 kts 140°
2026-04-23 16:36 40.87899 14.28098 298 ft 2 kts 140°
2026-04-23 16:36 40.87911 14.28083 294 ft 2 kts 147°
2026-04-23 16:37 40.87926 14.28078 294 ft 1 kts 216°
2026-04-23 16:37 40.87927 14.28078 294 ft 0 kts 218°
2026-04-23 16:40 40.87913 14.28058 294 ft 6 kts 231°
2026-04-23 16:40 40.87895 14.28022 297 ft 3 kts 237°
2026-04-23 16:41 40.87888 14.28007 299 ft 2 kts 236°
2026-04-23 16:41 40.87875 14.27985 296 ft 2 kts 231°
2026-04-23 16:41 40.87861 14.27964 300 ft 5 kts 231°
2026-04-23 16:41 40.87852 14.27918 298 ft 4 kts 273°
2026-04-23 16:42 40.87872 14.27877 301 ft 6 kts 314°
2026-04-23 16:42 40.87897 14.27848 298 ft 4 kts 321°
2026-04-23 16:42 40.87922 14.27824 298 ft 7 kts 324°
2026-04-23 16:42 40.87957 14.27790 301 ft 5 kts 326°
2026-04-23 16:43 40.87995 14.27797 297 ft 8 kts 39°
2026-04-23 16:43 40.88047 14.27901 296 ft 32 kts 58°
2026-04-23 16:43 40.88307 14.28447 282 ft 104 kts 58°
2026-04-23 16:43 40.88797 14.29473 277 ft 155 kts 58°
2026-04-23 16:44 40.89357 14.30684 932 ft 154 kts 58°
2026-04-23 16:44 40.89912 14.31902 1644 ft 157 kts 56°
2026-04-23 16:44 40.90523 14.33201 2038 ft 177 kts 56°
2026-04-23 16:44 40.91214 14.34650 2489 ft 192 kts 54°
2026-04-23 16:45 40.91935 14.36157 3255 ft 195 kts 54°
2026-04-23 16:45 40.92888 14.37496 3723 ft 215 kts 30°
2026-04-23 16:45 40.94404 14.37940 4204 ft 238 kts 356°
2026-04-23 16:45 40.96065 14.37568 5017 ft 244 kts 352°
2026-04-23 16:46 40.97746 14.37141 5889 ft 247 kts 352°
2026-04-23 16:46 40.99447 14.36703 6784 ft 250 kts 351°
2026-04-23 16:46 41.01175 14.36259 7593 ft 255 kts 351°
2026-04-23 16:46 41.02929 14.35806 8412 ft 260 kts 351°
2026-04-23 16:47 41.04715 14.35351 9252 ft 263 kts 351°
2026-04-23 16:47 41.06516 14.34898 10101 ft 265 kts 351°
2026-04-23 16:47 41.08370 14.34432 10573 ft 281 kts 351°
2026-04-23 16:47 41.10364 14.33854 10792 ft 305 kts 345°
2026-04-23 16:48 41.12356 14.32693 11306 ft 319 kts 333°
2026-04-23 16:48 41.14235 14.31141 11983 ft 324 kts 331°
2026-04-23 16:48 41.16160 14.29546 12713 ft 328 kts 332°
2026-04-23 16:48 41.18117 14.27927 13426 ft 332 kts 332°
2026-04-23 16:49 41.19420 14.26847 13926 ft 334 kts 332°
2026-04-23 16:49 41.22071 14.24650 14743 ft 338 kts 332°
2026-04-23 16:49 41.24080 14.22986 15359 ft 342 kts 332°
2026-04-23 16:49 41.26109 14.21305 16004 ft 345 kts 332°
2026-04-23 16:50 41.28159 14.19601 16673 ft 348 kts 332°
2026-04-23 16:50 41.30196 14.17907 17278 ft 351 kts 333°
2026-04-23 16:50 41.32281 14.16172 17875 ft 355 kts 332°
2026-04-23 16:50 41.34388 14.14419 18476 ft 359 kts 332°
2026-04-23 16:51 41.36517 14.12642 19001 ft 363 kts 332°
2026-04-23 16:51 41.38665 14.10845 19528 ft 367 kts 333°
2026-04-23 16:51 41.40831 14.09023 20065 ft 372 kts 331°
2026-04-23 16:51 41.42869 14.06822 20603 ft 382 kts 320°
2026-04-23 16:52 41.44585 14.04057 21125 ft 393 kts 308°
2026-04-23 16:52 41.45974 14.00858 21635 ft 400 kts 304°
2026-04-23 16:52 41.47339 13.97591 22153 ft 405 kts 304°
2026-04-23 16:52 41.48714 13.94303 22663 ft 409 kts 304°
2026-04-23 16:53 41.50109 13.90980 23198 ft 412 kts 305°
2026-04-23 16:53 41.51522 13.87624 23695 ft 416 kts 304°
2026-04-23 16:53 41.52944 13.84242 24057 ft 420 kts 304°
2026-04-23 16:53 41.54356 13.80871 24482 ft 422 kts 304°
2026-04-23 16:54 41.55791 13.77439 24891 ft 425 kts 304°
2026-04-23 16:54 41.57235 13.73980 25307 ft 427 kts 304°
2026-04-23 16:54 41.58688 13.70496 25713 ft 429 kts 304°
2026-04-23 16:54 41.60143 13.67004 26132 ft 431 kts 304°
2026-04-23 16:55 41.61605 13.63488 26532 ft 433 kts 304°
2026-04-23 16:55 41.63072 13.59959 26921 ft 435 kts 304°
2026-04-23 16:55 41.64545 13.56408 27260 ft 438 kts 304°
2026-04-23 16:55 41.66023 13.52836 27610 ft 440 kts 304°
2026-04-23 16:56 41.67507 13.49243 27931 ft 443 kts 303°
2026-04-23 16:56 41.68494 13.46854 28175 ft 444 kts 303°
2026-04-23 16:56 41.69990 13.43231 28539 ft 445 kts 303°
2026-04-23 16:56 41.71979 13.38412 28974 ft 448 kts 303°
2026-04-23 16:57 41.73615 13.34867 29300 ft 446 kts 311°
2026-04-23 16:57 41.75601 13.31697 29616 ft 444 kts 317°
2026-04-23 16:57 41.77002 13.29689 29819 ft 445 kts 317°
2026-04-23 16:57 41.79119 13.26645 30121 ft 447 kts 317°
2026-04-23 16:58 41.81235 13.23588 30364 ft 449 kts 317°
2026-04-23 16:58 41.83468 13.20679 30613 ft 447 kts 323°
2026-04-23 16:58 41.85803 13.17907 30831 ft 448 kts 323°
2026-04-23 16:58 41.88141 13.15136 31092 ft 449 kts 323°
2026-04-23 16:59 41.90488 13.12357 31327 ft 450 kts 322°
2026-04-23 16:59 41.92839 13.09575 31618 ft 450 kts 322°
2026-04-23 16:59 41.95181 13.06794 31949 ft 449 kts 322°
2026-04-23 16:59 41.97516 13.04012 32257 ft 448 kts 322°
2026-04-23 17:00 41.99845 13.01233 32558 ft 448 kts 322°
2026-04-23 17:00 42.02177 12.98447 32875 ft 447 kts 322°
2026-04-23 17:00 42.04472 12.95699 33173 ft 447 kts 322°
2026-04-23 17:00 42.06798 12.92913 33489 ft 447 kts 322°
2026-04-23 17:01 42.09124 12.90125 33787 ft 446 kts 322°
2026-04-23 17:01 42.11440 12.87346 34055 ft 446 kts 322°
2026-04-23 17:01 42.16011 12.81851 34106 ft 436 kts 322°
2026-04-23 17:02 42.20538 12.76413 34097 ft 434 kts 322°
2026-04-23 17:02 42.25026 12.71013 34110 ft 435 kts 322°
2026-04-23 17:03 42.29531 12.65576 34111 ft 434 kts 322°
2026-04-23 17:03 42.34029 12.60122 34098 ft 434 kts 322°
2026-04-23 17:04 42.38523 12.54672 34095 ft 433 kts 322°
2026-04-23 17:04 42.43009 12.49235 34101 ft 433 kts 322°
2026-04-23 17:05 42.47494 12.43789 34107 ft 432 kts 322°
2026-04-23 17:05 42.51964 12.38323 34100 ft 432 kts 321°
2026-04-23 17:06 42.56428 12.32859 34110 ft 432 kts 321°
2026-04-23 17:06 42.60895 12.27393 34127 ft 432 kts 321°
2026-04-23 17:07 42.65359 12.21908 34130 ft 432 kts 321°
2026-04-23 17:07 42.69822 12.16428 34147 ft 432 kts 322°
2026-04-23 17:08 42.74450 12.11254 34149 ft 430 kts 326°
2026-04-23 17:08 42.79227 12.06379 34146 ft 429 kts 327°
2026-04-23 17:09 42.83977 12.01509 34127 ft 429 kts 326°
2026-04-23 17:09 42.88703 11.96518 34141 ft 430 kts 325°
2026-04-23 17:10 42.93412 11.91482 34155 ft 430 kts 325°
2026-04-23 17:10 42.98088 11.86489 34159 ft 429 kts 325°
2026-04-23 17:11 43.02800 11.81472 34158 ft 429 kts 325°
2026-04-23 17:11 43.07507 11.76452 34171 ft 428 kts 325°
2026-04-23 17:12 43.12192 11.71433 34174 ft 427 kts 325°
2026-04-23 17:12 43.16872 11.66415 34156 ft 427 kts 325°
2026-04-23 17:13 43.21788 11.61950 34151 ft 421 kts 339°
2026-04-23 17:13 43.27364 11.59837 34151 ft 415 kts 355°
2026-04-23 17:14 43.33085 11.58768 34149 ft 415 kts 354°
2026-04-23 17:14 43.38802 11.57654 34151 ft 415 kts 354°
2026-04-23 17:15 43.44528 11.56542 34151 ft 415 kts 354°
2026-04-23 17:15 43.50223 11.55445 34162 ft 416 kts 354°
2026-04-23 17:16 43.55963 11.54339 34169 ft 415 kts 354°
2026-04-23 17:16 43.61686 11.53228 34173 ft 415 kts 354°
2026-04-23 17:17 43.67417 11.52107 34160 ft 415 kts 354°
2026-04-23 17:17 43.73150 11.50995 34165 ft 415 kts 354°
2026-04-23 17:18 43.81702 11.49329 34167 ft 415 kts 354°
2026-04-23 17:19 43.87430 11.48208 34168 ft 415 kts 354°
2026-04-23 17:19 43.93158 11.47087 34169 ft 415 kts 354°
2026-04-23 17:20 43.98874 11.45972 34169 ft 415 kts 354°
2026-04-23 17:21 44.10288 11.43725 33399 ft 415 kts 354°
2026-04-23 17:21 44.13135 11.43159 32897 ft 410 kts 355°
2026-04-23 17:21 44.18735 11.42051 31878 ft 402 kts 355°
2026-04-23 17:22 44.21492 11.41505 31375 ft 399 kts 355°
2026-04-23 17:22 44.26954 11.40419 30388 ft 393 kts 355°
2026-04-23 17:23 44.32335 11.39357 29367 ft 385 kts 355°
2026-04-23 17:23 44.34951 11.38842 28907 ft 381 kts 355°
2026-04-23 17:23 44.40148 11.37818 28003 ft 373 kts 355°
2026-04-23 17:24 44.42702 11.37310 27572 ft 369 kts 354°
2026-04-23 17:24 44.45227 11.36783 27137 ft 366 kts 351°
2026-04-23 17:24 44.49907 11.34048 26238 ft 369 kts 328°
2026-04-23 17:25 44.53920 11.29583 25294 ft 363 kts 334°
2026-04-23 17:25 44.56207 11.28187 24841 ft 356 kts 346°
2026-04-23 17:26 44.60956 11.26655 23958 ft 351 kts 349°
2026-04-23 17:26 44.65681 11.25061 22974 ft 347 kts 348°
2026-04-23 17:27 44.70334 11.23447 22066 ft 342 kts 348°
2026-04-23 17:27 44.72636 11.22655 21610 ft 340 kts 348°
2026-04-23 17:27 44.74925 11.21873 21161 ft 338 kts 349°
2026-04-23 17:27 44.77208 11.21100 20707 ft 336 kts 349°
2026-04-23 17:28 44.79480 11.20327 20258 ft 335 kts 349°
2026-04-23 17:28 44.81745 11.19554 19813 ft 334 kts 349°
2026-04-23 17:28 44.84003 11.18784 19356 ft 334 kts 349°
2026-04-23 17:28 44.86262 11.18015 18918 ft 334 kts 349°
2026-04-23 17:29 44.88518 11.17247 18497 ft 332 kts 349°
2026-04-23 17:29 44.90739 11.16489 18022 ft 332 kts 349°
2026-04-23 17:29 44.95220 11.14954 17130 ft 329 kts 349°
2026-04-23 17:30 44.96689 11.14449 16856 ft 327 kts 349°
2026-04-23 17:30 45.01846 11.12680 15836 ft 325 kts 349°
2026-04-23 17:30 45.04041 11.11926 15429 ft 323 kts 349°
2026-04-23 17:31 45.06194 11.11189 15004 ft 322 kts 349°
2026-04-23 17:31 45.08348 11.10448 14581 ft 313 kts 349°
2026-04-23 17:31 45.10410 11.09508 14150 ft 314 kts 338°
2026-04-23 17:31 45.12258 11.07831 13700 ft 320 kts 322°
2026-04-23 17:32 45.13726 11.05473 13232 ft 318 kts 306°
2026-04-23 17:32 45.14837 11.02813 12845 ft 312 kts 304°
2026-04-23 17:32 45.15936 11.00172 12456 ft 310 kts 304°
2026-04-23 17:32 45.17038 10.97552 12058 ft 308 kts 304°
2026-04-23 17:33 45.18140 10.94946 11613 ft 309 kts 304°
2026-04-23 17:33 45.19230 10.92356 11165 ft 303 kts 304°
2026-04-23 17:33 45.20303 10.89792 10716 ft 299 kts 304°
2026-04-23 17:33 45.21344 10.87298 10282 ft 290 kts 304°
2026-04-23 17:34 45.22164 10.84690 9879 ft 294 kts 284°
2026-04-23 17:34 45.22146 10.81795 9496 ft 297 kts 257°
2026-04-23 17:34 45.19796 10.77048 8718 ft 295 kts 226°
2026-04-23 17:35 45.18403 10.75031 8340 ft 283 kts 226°
2026-04-23 17:35 45.16180 10.71805 7717 ft 263 kts 231°
2026-04-23 17:35 45.15301 10.68805 7234 ft 242 kts 271°
2026-04-23 17:36 45.15607 10.66554 6880 ft 227 kts 300°
2026-04-23 17:36 45.16519 10.64814 6534 ft 218 kts 320°
2026-04-23 17:36 45.17767 10.63613 6157 ft 218 kts 338°
2026-04-23 17:36 45.19208 10.63023 5614 ft 221 kts 354°
2026-04-23 17:37 45.20737 10.63135 5131 ft 219 kts 13°
2026-04-23 17:37 45.22147 10.63944 4824 ft 220 kts 30°
2026-04-23 17:37 45.24407 10.66902 4219 ft 222 kts 44°
2026-04-23 17:38 45.25469 10.68434 3928 ft 213 kts 44°
2026-04-23 17:38 45.26489 10.69907 3653 ft 205 kts 43°
2026-04-23 17:38 45.27471 10.71324 3394 ft 197 kts 42°
2026-04-23 17:38 45.28410 10.72683 3158 ft 189 kts 41°
2026-04-23 17:39 45.29328 10.74007 2896 ft 186 kts 41°
2026-04-23 17:39 45.30226 10.75306 2645 ft 180 kts 41°
2026-04-23 17:39 45.31082 10.76546 2400 ft 172 kts 41°
2026-04-23 17:39 45.31901 10.77732 2159 ft 164 kts 42°
2026-04-23 17:40 45.32681 10.78862 1982 ft 157 kts 41°
2026-04-23 17:40 45.33439 10.79957 1752 ft 154 kts 42°
2026-04-23 17:40 45.34190 10.81043 1538 ft 152 kts 41°
2026-04-23 17:40 45.34923 10.82106 1329 ft 153 kts 43°
2026-04-23 17:41 45.35664 10.83181 1134 ft 152 kts 43°
2026-04-23 17:41 45.37128 10.85329 718 ft 151 kts 45°
2026-04-23 17:41 45.37863 10.86394 530 ft 151 kts 42°
2026-04-23 17:42 45.39304 10.88461 240 ft 133 kts 45°
2026-04-23 17:42 45.39687 10.89014 238 ft 102 kts 47°
2026-04-23 17:42 45.40063 10.89566 238 ft 55 kts 46°
2026-04-23 17:43 45.40278 10.89932 238 ft 20 kts 71°
2026-04-23 17:43 45.40305 10.90077 237 ft 8 kts 78°
2026-04-23 17:43 45.40313 10.90131 237 ft 8 kts 77°
2026-04-23 17:43 45.40327 10.90208 237 ft 8 kts 75°
2026-04-23 17:44 45.40341 10.90277 237 ft 7 kts 72°
2026-04-23 17:44 45.40364 10.90330 237 ft 6 kts 49°
2026-04-23 17:44 45.40421 10.90415 237 ft 8 kts 45°
2026-04-23 17:45 45.40451 10.90468 237 ft 6 kts 76°
2026-04-23 17:45 45.40414 10.90537 237 ft 0 kts 134°
2026-04-23 17:50 45.40415 10.90537 237 ft 0 kts 134°
2026-04-23 17:51 45.40414 10.90537 237 ft 0 kts 134°